| time (UTC) | temp C | wind direction | speed KPH | gust KPH | rain 1hr cm | rain 24hr cm | rain mn cm | humidity % | barometer mb |
| 20260503214319 | 21 | 193 | 1.6 | 8.0 | 0.00 | 0.03 | 0.03 | 63 | 1019.8 |
| 20260503213333 | 21 | 176 | 3.2 | 8.0 | 0.00 | 0.03 | 0.03 | 64 | 1019.8 |
| 20260503212320 | 21 | 190 | 3.2 | 9.7 | 0.00 | 0.03 | 0.03 | 63 | 1019.9 |
| 20260503211333 | 21 | 231 | 1.6 | 6.4 | 0.00 | 0.03 | 0.03 | 63 | 1019.9 |
| 20260503210324 | 21 | 296 | 0.0 | 8.0 | 0.00 | 0.03 | 0.03 | 63 | 1019.8 |
| 20260503205337 | 21 | 296 | 1.6 | 6.4 | 0.00 | 0.03 | 0.03 | 62 | 1019.9 |
| 20260503204325 | 21 | 293 | 3.2 | 4.8 | 0.00 | 0.03 | 0.03 | 63 | 1020.2 |
| 20260503203339 | 21 | 260 | 1.6 | 6.4 | 0.00 | 0.03 | 0.03 | 62 | 1020.4 |
| 20260503202326 | 21 | 251 | 0.0 | 6.4 | 0.00 | 0.03 | 0.03 | 62 | 1020.5 |
| 20260503201340 | 21 | 181 | 3.2 | 8.0 | 0.00 | 0.03 | 0.03 | 64 | 1020.5 |
| 20260503200331 | 21 | 314 | 0.0 | 0.0 | 0.00 | 0.03 | 0.03 | 61 | 1020.8 |
| 20260503195347 | 21 | 181 | 0.0 | 3.2 | 0.00 | 0.08 | 0.03 | 63 | 1020.8 |
| 20260503194318 | 21 | 181 | 1.6 | 4.8 | 0.00 | 0.08 | 0.03 | 64 | 1021.1 |
| 20260503193332 | 21 | 272 | 0.0 | 6.4 | 0.00 | 0.08 | 0.03 | 61 | 1021.2 |
| 20260503192345 | 21 | 315 | 3.2 | 8.0 | 0.00 | 0.08 | 0.03 | 63 | 1021.4 |
| 20260503191336 | 21 | 328 | 1.6 | 6.4 | 0.00 | 0.08 | 0.03 | 63 | 1021.7 |
| 20260503190323 | 20 | 256 | 3.2 | 11.3 | 0.00 | 0.08 | 0.03 | 64 | 1021.8 |
| 20260503185336 | 20 | 311 | 0.0 | 8.0 | 0.00 | 0.18 | 0.03 | 65 | 1022.0 |
| 20260503184322 | 20 | 314 | 0.0 | 11.3 | 0.00 | 0.18 | 0.03 | 68 | 1022.1 |
| 20260503183338 | 20 | 4 | 0.0 | 8.0 | 0.00 | 0.18 | 0.03 | 69 | 1022.2 |
| 20260503182349 | 20 | 135 | 1.6 | 8.0 | 0.00 | 0.18 | 0.03 | 63 | 1022.4 |
| 20260503181403 | 20 | 337 | 0.0 | 0.0 | 0.00 | 0.18 | 0.03 | 67 | 1022.5 |
| 20260503180331 | 20 | 300 | 0.0 | 0.0 | 0.00 | 0.18 | 0.03 | 65 | 1022.5 |
| 20260503175344 | 20 | 218 | 0.0 | 0.0 | 0.00 | 0.23 | 0.03 | 68 | 1022.6 |
| 20260503174328 | 19 | 317 | 0.0 | 8.0 | 0.00 | 0.23 | 0.03 | 68 | 1022.6 |
| 20260503173344 | 19 | 354 | 0.0 | 3.2 | 0.00 | 0.23 | 0.03 | 68 | 1022.7 |
| 20260503172330 | 19 | 29 | 0.0 | 3.2 | 0.00 | 0.23 | 0.03 | 69 | 1022.7 |
| 20260503171318 | 19 | 30 | 3.2 | 6.4 | 0.00 | 0.23 | 0.03 | 69 | 1022.8 |
| 20260503170335 | 19 | 4 | 3.2 | 8.0 | 0.00 | 0.23 | 0.03 | 70 | 1022.9 |
| 20260503150329 | 17 | 320 | 0.0 | 6.4 | 0.00 | 0.48 | 0.03 | 84 | 1023.7 |
| 20260503131318 | 12 | 24 | 0.0 | 0.0 | 0.00 | 1.07 | 0.03 | 100 | 1023.0 |
| 20260503130332 | 11 | 27 | 0.0 | 0.0 | 0.00 | 1.07 | 0.03 | 100 | 1023.0 |
| 20260503110330 | 6 | 27 | 0.0 | 0.0 | 0.00 | 1.37 | 0.03 | 100 | 1021.7 |
| 20260503000357 | 12 | 27 | 0.0 | 1.6 | 0.00 | 1.93 | 1.91 | 100 | 1016.1 |
| 20260502235323 | 12 | 27 | 0.0 | 6.4 | 0.00 | 1.93 | 1.91 | 100 | 1015.8 |
| 20260502234331 | 12 | 27 | 0.0 | 3.2 | 0.00 | 1.93 | 1.91 | 100 | 1015.8 |
| 20260502233319 | 12 | 27 | 0.0 | 3.2 | 0.00 | 1.93 | 1.91 | 100 | 1015.2 |
| 20260502232335 | 12 | 31 | 1.6 | 4.8 | 0.00 | 1.93 | 1.91 | 100 | 1015.3 |
| 20260502231325 | 12 | 33 | 1.6 | 6.4 | 0.00 | 1.93 | 1.91 | 100 | 1015.1 |
| 20260502230342 | 12 | 17 | 1.6 | 12.9 | 0.00 | 1.93 | 1.91 | 100 | 1015.0 |
| 20260502225354 | 12 | 48 | 1.6 | 8.0 | 0.00 | 1.93 | 1.91 | 100 | 1015.1 |
| 20260502224324 | 12 | 43 | 0.0 | 0.0 | 0.00 | 1.93 | 1.91 | 100 | 1015.3 |